ECHOSTAR 10

Last updated on Thu Oct 30 2025 00:02:47 GMT+0000 (Coordinated Universal Time)

1 28935U 06003A 25302.52950523 -.00000046 00000+0 00000+0 0 9998 2 28935 0.0275 331.8259 0001665 236.9823 269.7391 1.00272253 72159
UTC large
Height (km)
Speed (km/s)
/
Latitude / Longitude
Inclination (degrees)
Orbital Period (minutes)
Azimuth
Elevation
Range (km)
Doppler Factor

Next 0 passes for location: London (51.5072 / 0.1276)

Sorry there are no passes over London.